Location: Noordwijk
(52.2400°N, 4.4500°E)
Time: 21:05:58
(UTC+00:00)

AO-7 - Pass Details

Date: 11 December 2022
Orbit: 1440 x 1459 km, 101.9° (Epoch: 31 January)

Event Time Altitude Azimuth Distance (km) Brightness Sun altitude
Rises 04:25:52 0° 20° (NNE) 4,548 ? -28.5°
Reaches altitude 10° 04:28:42 10° 24° (NNE) 3,568 ? -28.1°
Maximum altitude 04:36:59 66° 106° (ESE) 1,563 ? -26.8°
Drops below altitude 10° 04:45:14 10° 188° (S) 3,561 ? -25.5°
Sets 04:48:03 0° 191° (SSW) 4,538 ? -25.1°
